Location: Wheeling
(40.0640°N, 80.7210°W)
Time: 18:42:37
(UTC-05:00)

KAITUO 1B - Pass Details

Date: 23 October 2021
Orbit: 490 x 506 km, 97.4° (Epoch: 30 November)

Event Time Altitude Azimuth Distance (km) Brightness Sun altitude
Rises 19:21:51 0° 179° (S) 2,554 ? -10.3°
Reaches altitude 10° 19:23:58 10° 185° (S) 1,676 ? -10.7°
Maximum altitude 19:27:27 48° 260° (W) 647 ? -11.4°
Drops below altitude 10° 19:30:59 10° 336° (NNW) 1,687 ? -12.1°
Sets 19:33:07 0° 343° (NNW) 2,573 ? -12.5°
